Regional Weather Roundup
Issued by NWS

Home | Current Version | Previous Version | Text Only | Print | Product List | Glossary On
Versions: 1 2 3 4 5 6 7 8 9 10 11 12 13 14 15 16 17 18 19 20 21 22 23 24 25 26 27 28 29 30 31 32 33 34 35 36 37 38 39 40 41 42 43 44 45 46 47 48 49 50
000
ASUS43 KMKX 250959
RWRWI

WISCONSIN REGIONAL WEATHER ROUNDUP
NATIONAL WEATHER SERVICE MILWAUKEE/SULLIVAN WI
500 AM CDT FRI JUL 25 2014

NOTE: "FAIR" INDICATES FEW OR NO CLOUDS BELOW 12,000 FEET WITH NO
SIGNIFICANT WEATHER AND/OR OBSTRUCTIONS TO VISIBILITY.

WIZ001-002-006>008-014>016-023>028-251100-
NORTHWEST WISCONSIN

CITY           SKY/WX    TMP DP  RH WIND       PRES   REMARKS
SUPERIOR ARPT  CLOUDY    57  55  91 CALM      29.85F
ASHLAND        CLOUDY    60  59  96 S7        29.88F
HAYWARD        CLOUDY    65  60  84 SE3       29.89F
SIREN          CLOUDY    65  58  77 SE5       29.86F
RICE LAKE      CLOUDY    65  58  80 E6        29.90F
LADYSMITH      CLOUDY    63  59  87 S3        29.95F
EAU CLAIRE     NOT AVBL
MENOMONIE      CLOUDY    67  60  79 SE6       29.90F
NEW RICHMOND   CLOUDY    66  58  77 S10       29.85F
OSCEOLA        CLOUDY    66  60  79 SE8       29.86F
$$

WIZ003>005-009-010-017-018-251100-
NORTH CENTRAL WISCONSIN

CITY           SKY/WX    TMP DP  RH WIND       PRES   REMARKS
WOODRUFF       PTCLDY    59  54  81 S5        29.96R
RHINELANDER    MOCLDY    61  56  83 SW6       29.97R
EAGLE RIVER    PTCLDY    56  53  88 CALM      29.95R
LAND O LAKES   PTCLDY    55  55  97 CALM      29.96R
PHILLIPS       CLOUDY    61  57  87 S3        29.95R
TOMAHAWK       MOCLDY    58  56  91 CALM      29.96S
MEDFORD        LGT RAIN  62  58  88 S6        29.95F
MERRILL        PTCLDY    58  57  95 S3        29.95S
$$

WIZ029-030-035-036-043>047-251100-
CENTRAL WISCONSIN

CITY           SKY/WX    TMP DP  RH WIND       PRES   REMARKS
WAUSAU         PTCLDY    62  58  86 S5        29.96R
MOSINEE        CLOUDY    61  59  94 S7        29.99R
MARSHFIELD     MOCLDY    62  58  86 SW6       29.98R
STEVENS POINT  CLOUDY    60  55  84 S5        30.00R
WAUPACA        CLOUDY    60  55  82 CALM      30.00R
WAUTOMA        NOT AVBL
WISC RAPIDS    PTCLDY    62  57  83 S6        29.99R
CAMP DOUGLAS   NOT AVBL
$$

WIZ011>013-019>022-031-037>040-048>050-251100-
NORTHEAST WISCONSIN

CITY           SKY/WX    TMP DP  RH WIND       PRES   REMARKS
ANTIGO         PTCLDY    56  55  97 S6        29.99R
STURGEON BAY   PTCLDY    59  45  58 SW8       29.97R
GREEN BAY      MOCLDY    62  53  72 SW7       29.99R
MANITOWOC      NOT AVBL
APPLETON       PTCLDY    59  50  72 SW6       30.00R
CLINTONVILLE   PTCLDY    59  52  77 SW3       29.99R
OSHKOSH        CLOUDY    60  50  69 S9        30.00R
$$

WIZ032>034-041-042-053>061-251100-
SOUTHWEST WISCONSIN

CITY           SKY/WX    TMP DP  RH WIND       PRES   REMARKS
LA CROSSE      CLOUDY    70  58  65 S16       29.95S
SPARTA         LGT RAIN  63  58  82 S5        29.97R
VIROQUA        PTSUNNY   62  58  86 S6        30.02R
BOSCOBEL       CLOUDY    65  58  78 SW3       30.02R
PRAIRIE DU CHI LGT RAIN  66  57  71 S6        30.01R
PLATTEVILLE    CLOUDY    62  57  86 SE10      30.01S
$$

WIZ056-057-062-063-064-067-068-251100-
SOUTH CENTRAL WISCONSIN

CITY           SKY/WX    TMP DP  RH WIND       PRES   REMARKS
BARABOO/DELLS  MOCLDY    61  54  76 S7        30.00R
LONE ROCK      NOT AVBL
WATERTOWN      PTCLDY    56  48  75 S5        30.00F
MADISON        MOCLDY    64  50  60 S7        30.01F
MIDDLETON      FAIR      63  51  65 SW9       30.01S
MONROE         CLOUDY    59  52  77 S12       30.01F
JANESVILLE     MOCLDY    55  48  76 SE3       30.01F
$$

WIZ051-052-058>065-066-070>072-251100-
SOUTHEAST WISCONSIN

CITY           SKY/WX    TMP DP  RH WIND       PRES   REMARKS
MILWAUKEE      PTCLDY    60  45  57 SW10      30.02F
WAUKESHA       PTCLDY    55  45  67 S6        30.04S
MILWAUKEE/TIMM PTCLDY    59  43  55 SW7       30.02F
RACINE         CLEAR     60  47  61 SW9       30.04F
BURLINGTON     CLEAR     51  47  87 S5        30.03F
KENOSHA        CLEAR     58  48  69 S7        30.03F
FOND DU LAC    MOCLDY    60  47  61 SW8       30.02R
SHEBOYGAN      MOCLDY    58  47  66 SW7       30.01R
WEST BEND      PTCLDY    57  45  62 SW6       30.02R
JUNEAU         CLEAR     57  45  65 S6        30.02S
$$

LSZ147-162-251100-
LAKE SUPERIOR

STATION/POSITION TIME  TEMP    WIND        PRES    WAVE
                       AIR SEA DIR/SP/G            HT/PER
                 (UTC) (F)     (DEG/KT/KT) (MB)    (FT/S)
$$

LMZ867-665-643>646-251100-
LAKE MICHIGAN

STATION/POSITION TIME  TEMP    WIND        PRES    WAVE
                       AIR SEA DIR/SP/G            HT/PER
                 (UTC) (F)     (DEG/KT/KT) (MB)    (FT/S)
$$

TC  - TEMPERATURE IN CELSIUS
VSB - VISIBILITY IN STATUTE MILES
WCI - WIND CHILL INDEX
HX  - HEAT INDEX



USA.gov is the U.S. government's official web portal to all federal, state and local government web resources and services.